{"data":{"norad_id":60562,"epoch":"2026-09-21T20:19:42.782016Z","epoch_age_seconds":172637,"freshness":"FRESH","line1":"1 60562U 24149CY  26264.84702294  .00004294  00000+0  14138-3 0  9993","line2":"2 60562  97.3739 344.5542 0004231 343.4596  16.6507 15.32025941116836","mean_motion":15.32025941,"eccentricity":0.0004231,"inclination_deg":97.3739,"raan_deg":344.5542,"arg_perigee_deg":343.4596,"mean_anomaly_deg":16.6507,"bstar":0.00014138,"rev_number":11683,"period_min":93.9931865031,"perigee_km":466.8712054895,"apogee_km":472.66590316957,"semimajor_km":6847.9055543295,"source":"CELESTRAK","updated_at":"2026-09-23T09:00:20.701871Z"}}